QPF
0.03 0.03 0.04 0.05 0.05 0.07 0.09 0.10 0.10 0.10 0.10 0.11 0.11 0.09 0.08 0.09 0.10 0.11 0.09 0.09 0.11 0.13 0.09 0.08 0.08 0.06 0.07 0.06 0.08 0.11 0.14 0.17 0.19 0.14 0.09 0.07 0.06 0.06 0.05 0.05 0.04 0.04 0.04
0.03 0.03 0.04 0.05 0.05 0.05 0.06 0.08 0.09 0.09 0.09 0.10 0.11 0.10 0.08 0.08 0.10 0.09 0.06 0.08 0.12 0.12 0.11 0.13 0.11 0.10 0.11 0.09 0.10 0.11 0.11 0.11 0.12 0.12 0.11 0.07 0.07 0.07 0.06 0.04 0.03 0.03 0.03
0.02 0.03 0.03 0.04 0.05 0.06 0.06 0.06 0.08 0.09 0.09 0.10 0.12 0.11 0.10 0.11 0.11 0.09 0.08 0.10 0.12 0.11 0.11 0.13 0.11 0.14 0.14 0.12 0.11 0.12 0.11 0.08 0.09 0.09 0.09 0.09 0.07 0.06 0.05 0.04 0.05 0.04 0.04
0.02 0.03 0.04 0.05 0.06 0.07 0.07 0.08 0.08 0.08 0.09 0.10 0.11 0.12 0.13 0.12 0.13 0.09 0.09 0.11 0.11 0.11 0.11 0.11 0.09 0.10 0.09 0.09 0.10 0.10 0.10 0.10 0.10 0.09 0.10 0.10 0.09 0.08 0.07 0.06 0.05 0.05 0.04
0.01 0.02 0.03 0.04 0.05 0.07 0.09 0.09 0.08 0.08 0.08 0.09 0.10 0.10 0.11 0.12 0.11 0.10 0.10 0.10 0.11 0.10 0.09 0.08 0.08 0.08 0.08 0.08 0.08 0.09 0.09 0.09 0.08 0.08 0.11 0.11 0.12 0.10 0.08 0.07 0.06 0.05 0.04
0.01 0.02 0.02 0.03 0.05 0.06 0.07 0.07 0.07 0.07 0.07 0.08 0.08 0.08 0.08 0.06 0.06 0.06 0.07 0.08 0.10 0.09 0.08 0.08 0.07 0.07 0.07 0.06 0.06 0.09 0.10 0.10 0.10 0.12 0.13 0.12 0.13 0.12 0.11 0.09 0.08 0.08 0.07
0.01 0.02 0.02 0.02 0.03 0.04 0.04 0.05 0.05 0.06 0.07 0.07 0.07 0.07 0.06 0.05 0.05 0.05 0.04 0.05 0.07 0.07 0.08 0.07 0.05 0.05 0.05 0.06 0.08 0.10 0.12 0.13 0.13 0.13 0.14 0.13 0.13 0.12 0.11 0.10 0.08 0.07 0.06
0.01 0.01 0.01 0.01 0.02 0.02 0.03 0.04 0.05 0.05 0.06 0.06 0.06 0.06 0.06 0.06 0.06 0.04 0.03 0.04 0.03 0.04 0.05 0.06 0.06 0.06 0.06 0.08 0.07 0.07 0.08 0.10 0.11 0.11 0.11 0.10 0.09 0.09 0.08 0.07 0.07 0.05 0.04
0.01 0.01 0.01 0.01 0.02 0.03 0.03 0.04 0.04 0.04 0.04 0.05 0.05 0.05 0.04 0.05 0.06 0.05 0.04 0.03 0.02 0.02 0.02 0.03 0.04 0.05 0.06 0.08 0.07 0.06 0.05 0.05 0.06 0.06 0.06 0.05 0.05 0.05 0.05 0.05 0.04 0.03 0.03
0.01 0.01 0.01 0.02 0.03 0.04 0.04 0.03 0.04 0.04 0.04 0.04 0.04 0.04 0.03 0.03 0.05 0.04 0.03 0.02 0.01 0.01 0.02 0.03 0.05 0.05 0.06 0.05 0.05 0.04 0.02 0.02 0.02 0.02 0.02 0.02 0.02 0.02 0.03 0.03 0.03 0.03 0.04
0.03 0.03 0.03 0.04 0.05 0.05 0.05 0.03 0.03 0.03 0.04 0.04 0.04 0.04 0.03 0.02 0.03 0.04 0.03 0.02 0.02 0.02 0.02 0.03 0.04 0.05 0.04 0.04 0.04 0.03 0.02 0.02 0.02 0.01 0.01 0.01 0.01 0.01 0.01 0.02 0.02 0.03 0.03
0.03 0.03 0.03 0.04 0.04 0.05 0.04 0.03 0.02 0.03 0.03 0.03 0.03 0.03 0.02 0.02 0.02 0.02 0.02 0.02 0.02 0.02 0.03 0.03 0.04 0.04 0.03 0.02 0.02 0.02 0.02 0.02 0.01 0.01 0.01 0.02 0.02 0.02 0.02 0.02 0.02 0.02 0.03
0.03 0.03 0.04 0.04 0.04 0.04 0.03 0.02 0.02 0.02 0.02 0.02 0.02 0.02 0.02 0.01 0.01 0.01 0.01 0.01 0.01 0.01 0.01 0.02 0.02 0.02 0.02 0.01 0.01 0.02 0.02 0.01 0.01 0.01 0.01 0.02 0.02 0.02 0.02 0.02 0.02 0.02 0.02
0.03 0.03 0.03 0.03 0.03 0.03 0.02 0.01 0.02 0.02 0.02 0.02 0.02 0.02 0.02 0.02 0.01 0.01 0.01 0.01 0.01 0.01 0.01 0.01 0.01 0.01 0.01 0.01 0.01 0.02 0.01 0.02 0.03 0.02 0.02 0.02 0.02 0.03 0.03 0.02 0.03 0.03 0.03
0.04 0.04 0.04 0.04 0.03 0.03 0.03 0.03 0.03 0.03 0.03 0.03 0.02 0.02 0.03 0.03 0.03 0.03 0.02 0.02 0.02 0.02 0.01 0.01 0.01 0.01 0.01 0.01 0.02 0.02 0.02 0.02 0.03 0.03 0.03 0.03 0.02 0.02 0.02 0.02 0.02 0.02 0.02
0.04 0.03 0.03 0.02 0.02 0.02 0.03 0.03 0.04 0.03 0.02 0.02 0.02 0.02 0.03 0.04 0.04 0.03 0.02 0.02 0.02 0.02 0.01 0.01 0.01 0.01 0.02 0.03 0.03 0.03 0.03 0.03 0.03 0.03 0.02 0.02 0.02 0.01 0.01 0.01 0.01 0.02 0.02
0.02 0.02 0.02 0.01 0.01 0.01 0.01 0.02 0.02 0.02 0.02 0.02 0.02 0.03 0.03 0.04 0.04 0.04 0.04 0.03 0.03 0.03 0.02 0.01 0.02 0.03 0.03 0.03 0.04 0.04 0.04 0.03 0.02 0.02 0.02 0.02 0.01 0.02 0.02 0.02 0.02 0.02 0.02
0.02 0.02 0.02 0.02 0.02 0.02 0.02 0.01 0.02 0.02 0.02 0.02 0.02 0.03 0.03 0.04 0.04 0.04 0.04 0.03 0.03 0.03 0.03 0.03 0.04 0.04 0.04 0.04 0.04 0.03 0.03 0.03 0.03 0.03 0.03 0.02 0.02 0.03 0.03 0.02 0.02 0.02 0.02
0.02 0.02 0.02 0.02 0.03 0.03 0.02 0.02 0.02 0.03 0.03 0.02 0.02 0.03 0.04 0.03 0.03 0.03 0.03 0.03 0.03 0.03 0.04 0.04 0.04 0.04 0.04 0.04 0.04 0.04 0.04 0.04 0.04 0.04 0.04 0.04 0.03 0.03 0.03 0.03 0.03 0.03 0.02
0.02 0.03 0.03 0.03 0.04 0.04 0.04 0.04 0.04 0.05 0.05 0.04 0.03 0.03 0.03 0.02 0.02 0.02 0.02 0.02 0.03 0.03 0.03 0.04 0.04 0.04 0.04 0.04 0.04 0.04 0.04 0.04 0.04 0.03 0.03 0.03 0.03 0.03 0.03 0.03 0.03 0.02 0.02
0.02 0.02 0.03 0.04 0.04 0.05 0.05 0.06 0.06 0.06 0.06 0.06 0.06 0.05 0.04 0.03 0.03 0.03 0.03 0.03 0.03 0.03 0.03 0.03 0.03 0.03 0.03 0.03 0.02 0.02 0.02 0.02 0.02 0.03 0.03 0.03 0.03 0.03 0.03 0.03 0.02 0.02 0.02
0.01 0.01 0.01 0.01 0.02 0.03 0.03 0.04 0.04 0.05 0.05 0.06 0.06 0.06 0.05 0.04 0.03 0.03 0.03 0.03 0.03 0.03 0.03 0.03 0.03 0.02 0.02 0.01 0.01 0.01 0.02 0.02 0.02 0.03 0.03 0.03 0.03 0.03 0.03 0.02 0.02 0.02 0.02
0.01 0.01 0.00 0.01 0.01 0.01 0.01 0.01 0.01 0.02 0.02 0.02 0.03 0.03 0.03 0.02 0.02 0.02 0.02 0.02 0.02 0.02 0.02 0.02 0.03 0.03 0.02 0.02 0.02 0.02 0.02 0.02 0.02 0.02 0.02 0.02 0.02 0.02 0.02 0.02 0.02 0.02 0.02
0.01 0.01 0.01 0.01 0.01 0.01 0.01 0.01 0.01 0.01 0.02 0.02 0.02 0.02 0.02 0.02 0.02 0.01 0.01 0.02 0.02 0.02 0.02 0.02 0.03 0.03 0.03 0.03 0.03 0.02 0.02 0.02 0.02 0.02 0.02 0.02 0.02 0.02 0.02 0.02 0.02 0.01 0.01
0.00 0.00 0.01 0.01 0.01 0.01 0.01 0.01 0.02 0.02 0.02 0.02 0.02 0.02 0.02 0.02 0.02 0.02 0.02 0.02 0.02 0.02 0.02 0.03 0.03 0.03 0.03 0.03 0.03 0.03 0.03 0.03 0.03 0.03 0.03 0.03 0.02 0.02 0.02 0.01 0.01 0.01 0.01
0.01 0.01 0.01 0.01 0.01 0.01 0.02 0.02 0.02 0.02 0.02 0.02 0.02 0.01 0.01 0.01 0.01 0.01 0.01 0.01 0.01 0.01 0.01 0.02 0.02 0.02 0.03 0.03 0.03 0.04 0.04 0.03 0.03 0.03 0.02 0.02 0.02 0.01 0.01 0.01 0.01 0.01 0.00
MSLP
1012.19 1012.59 1013.03 1013.46 1013.85 1014.17 1014.39 1014.54 1014.64 1014.71 1014.80 1014.93 1015.11 1015.34 1015.60 1015.87 1016.12 1016.32 1016.46 1016.54 1016.57 1016.58 1016.58 1016.61 1016.70 1016.85 1017.09 1017.42 1017.82 1018.27 1018.78 1019.30 1019.83 1020.35 1020.85 1021.31 1021.75 1022.16 1022.54 1022.91 1023.27 1023.63 1023.99
1011.94 1012.29 1012.68 1013.07 1013.42 1013.72 1013.95 1014.13 1014.25 1014.37 1014.49 1014.65 1014.86 1015.11 1015.38 1015.66 1015.91 1016.11 1016.25 1016.31 1016.32 1016.28 1016.23 1016.20 1016.22 1016.31 1016.49 1016.76 1017.14 1017.61 1018.14 1018.73 1019.36 1019.99 1020.62 1021.23 1021.80 1022.34 1022.83 1023.31 1023.75 1024.17 1024.57
1011.73 1012.04 1012.39 1012.73 1013.05 1013.34 1013.57 1013.76 1013.92 1014.08 1014.25 1014.45 1014.69 1014.95 1015.24 1015.51 1015.76 1015.95 1016.06 1016.11 1016.08 1016.00 1015.90 1015.81 1015.76 1015.78 1015.89 1016.11 1016.45 1016.89 1017.44 1018.06 1018.74 1019.46 1020.19 1020.91 1021.60 1022.25 1022.86 1023.43 1023.96 1024.45 1024.90
1011.51 1011.82 1012.14 1012.45 1012.74 1013.01 1013.24 1013.45 1013.65 1013.85 1014.07 1014.31 1014.57 1014.86 1015.15 1015.41 1015.63 1015.79 1015.88 1015.89 1015.83 1015.72 1015.58 1015.43 1015.33 1015.29 1015.34 1015.51 1015.79 1016.20 1016.72 1017.34 1018.04 1018.80 1019.58 1020.37 1021.15 1021.90 1022.60 1023.25 1023.86 1024.41 1024.92
1011.29 1011.61 1011.91 1012.20 1012.47 1012.72 1012.95 1013.18 1013.42 1013.66 1013.92 1014.20 1014.50 1014.79 1015.07 1015.32 1015.51 1015.64 1015.69 1015.67 1015.57 1015.43 1015.26 1015.09 1014.95 1014.87 1014.87 1014.99 1015.22 1015.57 1016.05 1016.63 1017.31 1018.07 1018.87 1019.69 1020.51 1021.31 1022.07 1022.80 1023.47 1024.08 1024.64
1011.04 1011.39 1011.69 1011.96 1012.22 1012.46 1012.70 1012.94 1013.21 1013.49 1013.79 1014.11 1014.42 1014.72 1015.00 1015.22 1015.38 1015.47 1015.49 1015.43 1015.32 1015.16 1014.98 1014.80 1014.65 1014.55 1014.53 1014.60 1014.78 1015.08 1015.49 1016.02 1016.64 1017.35 1018.13 1018.94 1019.76 1020.58 1021.38 1022.14 1022.86 1023.52 1024.13
1010.81 1011.18 1011.48 1011.75 1011.99 1012.22 1012.46 1012.72 1013.01 1013.32 1013.66 1014.00 1014.34 1014.64 1014.90 1015.11 1015.24 1015.30 1015.29 1015.21 1015.09 1014.94 1014.77 1014.61 1014.47 1014.38 1014.34 1014.38 1014.52 1014.75 1015.10 1015.55 1016.10 1016.74 1017.45 1018.22 1019.01 1019.82 1020.62 1021.40 1022.14 1022.84 1023.49
1010.64 1011.01 1011.32 1011.57 1011.79 1012.01 1012.25 1012.51 1012.82 1013.16 1013.52 1013.89 1014.24 1014.55 1014.80 1014.99 1015.10 1015.14 1015.12 1015.05 1014.94 1014.81 1014.67 1014.55 1014.44 1014.36 1014.33 1014.36 1014.46 1014.64 1014.91 1015.28 1015.74 1016.29 1016.92 1017.62 1018.37 1019.14 1019.92 1020.69 1021.44 1022.15 1022.83
1010.57 1010.94 1011.23 1011.46 1011.66 1011.86 1012.08 1012.35 1012.66 1013.01 1013.39 1013.77 1014.13 1014.45 1014.71 1014.89 1014.99 1015.04 1015.02 1014.97 1014.89 1014.80 1014.71 1014.63 1014.56 1014.52 1014.50 1014.53 1014.60 1014.73 1014.93 1015.22 1015.59 1016.06 1016.60 1017.23 1017.91 1018.63 1019.37 1020.11 1020.84 1021.55 1022.22
1010.65 1010.99 1011.24 1011.44 1011.61 1011.78 1011.98 1012.23 1012.54 1012.90 1013.28 1013.67 1014.04 1014.37 1014.63 1014.82 1014.94 1015.00 1015.01 1014.99 1014.95 1014.91 1014.87 1014.85 1014.83 1014.82 1014.83 1014.85 1014.90 1014.99 1015.14 1015.35 1015.65 1016.03 1016.50 1017.04 1017.65 1018.31 1019.00 1019.70 1020.40 1021.07 1021.72
1010.88 1011.17 1011.38 1011.53 1011.66 1011.79 1011.97 1012.20 1012.49 1012.83 1013.22 1013.61 1013.98 1014.31 1014.59 1014.80 1014.94 1015.03 1015.07 1015.09 1015.11 1015.12 1015.13 1015.16 1015.18 1015.21 1015.23 1015.26 1015.30 1015.37 1015.47 1015.63 1015.86 1016.17 1016.57 1017.05 1017.59 1018.19 1018.82 1019.47 1020.11 1020.73 1021.32
1011.26 1011.48 1011.63 1011.73 1011.81 1011.90 1012.04 1012.24 1012.51 1012.83 1013.20 1013.58 1013.95 1014.29 1014.58 1014.81 1014.98 1015.10 1015.18 1015.25 1015.31 1015.36 1015.43 1015.49 1015.55 1015.60 1015.65 1015.68 1015.72 1015.77 1015.85 1015.97 1016.16 1016.42 1016.76 1017.18 1017.67 1018.20 1018.77 1019.35 1019.93 1020.48 1021.01
1011.74 1011.89 1011.97 1012.01 1012.04 1012.09 1012.19 1012.35 1012.59 1012.89 1013.23 1013.59 1013.96 1014.30 1014.59 1014.84 1015.03 1015.18 1015.30 1015.40 1015.49 1015.59 1015.68 1015.77 1015.85 1015.93 1015.98 1016.03 1016.07 1016.11 1016.18 1016.29 1016.45 1016.68 1016.99 1017.36 1017.80 1018.28 1018.78 1019.30 1019.80 1020.28 1020.74
1012.27 1012.34 1012.36 1012.35 1012.34 1012.35 1012.41 1012.54 1012.74 1013.00 1013.31 1013.66 1014.01 1014.34 1014.63 1014.88 1015.09 1015.26 1015.39 1015.51 1015.62 1015.73 1015.83 1015.93 1016.02 1016.10 1016.17 1016.22 1016.27 1016.32 1016.39 1016.50 1016.66 1016.88 1017.16 1017.51 1017.90 1018.33 1018.78 1019.23 1019.67 1020.08 1020.47
1012.78 1012.79 1012.76 1012.71 1012.67 1012.65 1012.68 1012.78 1012.94 1013.18 1013.46 1013.77 1014.10 1014.41 1014.69 1014.94 1015.14 1015.31 1015.45 1015.56 1015.66 1015.76 1015.85 1015.94 1016.03 1016.10 1016.16 1016.22 1016.28 1016.35 1016.44 1016.56 1016.73 1016.95 1017.22 1017.55 1017.91 1018.30 1018.70 1019.10 1019.49 1019.85 1020.18
1013.25 1013.22 1013.15 1013.08 1013.01 1012.98 1012.99 1013.07 1013.21 1013.42 1013.67 1013.96 1014.26 1014.54 1014.80 1015.03 1015.21 1015.35 1015.47 1015.55 1015.63 1015.69 1015.75 1015.81 1015.87 1015.93 1015.99 1016.05 1016.12 1016.20 1016.31 1016.46 1016.64 1016.87 1017.14 1017.46 1017.80 1018.16 1018.53 1018.89 1019.24 1019.56 1019.87
1013.65 1013.59 1013.52 1013.44 1013.37 1013.33 1013.34 1013.41 1013.54 1013.73 1013.97 1014.23 1014.49 1014.75 1014.98 1015.17 1015.32 1015.42 1015.49 1015.53 1015.55 1015.57 1015.58 1015.59 1015.62 1015.65 1015.70 1015.76 1015.84 1015.94 1016.07 1016.23 1016.44 1016.67 1016.95 1017.25 1017.58 1017.92 1018.26 1018.60 1018.93 1019.25 1019.55
1013.99 1013.93 1013.85 1013.78 1013.72 1013.70 1013.72 1013.80 1013.93 1014.11 1014.33 1014.57 1014.81 1015.04 1015.23 1015.38 1015.49 1015.54 1015.56 1015.54 1015.50 1015.45 1015.41 1015.37 1015.35 1015.35 1015.38 1015.44 1015.52 1015.64 1015.79 1015.97 1016.18 1016.42 1016.70 1016.99 1017.30 1017.63 1017.95 1018.28 1018.60 1018.92 1019.23
1014.27 1014.22 1014.15 1014.10 1014.06 1014.06 1014.10 1014.19 1014.33 1014.52 1014.73 1014.96 1015.18 1015.38 1015.54 1015.65 1015.71 1015.72 1015.68 1015.60 1015.50 1015.40 1015.30 1015.21 1015.15 1015.13 1015.14 1015.18 1015.27 1015.39 1015.55 1015.74 1015.95 1016.20 1016.46 1016.74 1017.03 1017.33 1017.64 1017.96 1018.28 1018.61 1018.94
1014.51 1014.46 1014.42 1014.38 1014.36 1014.38 1014.44 1014.55 1014.70 1014.89 1015.10 1015.32 1015.53 1015.71 1015.85 1015.93 1015.95 1015.92 1015.83 1015.71 1015.57 1015.41 1015.27 1015.15 1015.06 1015.02 1015.02 1015.07 1015.15 1015.28 1015.44 1015.63 1015.84 1016.07 1016.31 1016.56 1016.83 1017.11 1017.39 1017.70 1018.01 1018.34 1018.68
1014.69 1014.65 1014.61 1014.58 1014.58 1014.61 1014.69 1014.80 1014.96 1015.15 1015.36 1015.58 1015.77 1015.94 1016.06 1016.12 1016.13 1016.07 1015.96 1015.81 1015.64 1015.47 1015.31 1015.18 1015.09 1015.04 1015.05 1015.11 1015.20 1015.34 1015.50 1015.68 1015.88 1016.08 1016.30 1016.51 1016.74 1016.98 1017.23 1017.51 1017.80 1018.12 1018.46
1014.80 1014.75 1014.70 1014.66 1014.66 1014.69 1014.75 1014.87 1015.02 1015.20 1015.41 1015.61 1015.80 1015.96 1016.08 1016.14 1016.13 1016.07 1015.97 1015.82 1015.66 1015.50 1015.36 1015.25 1015.18 1015.16 1015.19 1015.27 1015.39 1015.55 1015.71 1015.89 1016.07 1016.26 1016.43 1016.61 1016.79 1016.97 1017.18 1017.41 1017.66 1017.94 1018.25
1014.80 1014.72 1014.65 1014.59 1014.55 1014.56 1014.60 1014.69 1014.82 1014.98 1015.17 1015.36 1015.54 1015.69 1015.80 1015.87 1015.88 1015.84 1015.76 1015.65 1015.53 1015.41 1015.32 1015.26 1015.25 1015.28 1015.37 1015.50 1015.66 1015.84 1016.03 1016.21 1016.38 1016.54 1016.68 1016.81 1016.93 1017.06 1017.20 1017.37 1017.56 1017.79 1018.04
1014.69 1014.57 1014.45 1014.34 1014.26 1014.22 1014.22 1014.27 1014.36 1014.48 1014.63 1014.80 1014.96 1015.11 1015.22 1015.30 1015.33 1015.33 1015.29 1015.23 1015.17 1015.12 1015.11 1015.13 1015.19 1015.31 1015.47 1015.67 1015.88 1016.11 1016.33 1016.53 1016.70 1016.84 1016.95 1017.04 1017.11 1017.18 1017.26 1017.35 1017.47 1017.62 1017.80
1014.45 1014.28 1014.11 1013.95 1013.82 1013.72 1013.66 1013.65 1013.69 1013.76 1013.87 1014.00 1014.14 1014.27 1014.38 1014.47 1014.52 1014.55 1014.57 1014.57 1014.58 1014.61 1014.68 1014.79 1014.94 1015.15 1015.39 1015.67 1015.96 1016.24 1016.51 1016.73 1016.92 1017.06 1017.15 1017.21 1017.23 1017.25 1017.26 1017.29 1017.34 1017.41 1017.52
1014.13 1013.92 1013.70 1013.49 1013.30 1013.14 1013.03 1012.96 1012.94 1012.96 1013.02 1013.11 1013.21 1013.31 1013.41 1013.50 1013.57 1013.62 1013.67 1013.72 1013.79 1013.89 1014.03 1014.23 1014.47 1014.76 1015.09 1015.44 1015.80 1016.14 1016.46 1016.72 1016.94 1017.09 1017.18 1017.21 1017.21 1017.19 1017.15 1017.12 1017.11 1017.12 1017.16
Thickness
5779 5775 5771 5767 5764 5762 5760 5759 5758 5757 5756 5755 5754 5753 5752 5751 5751 5749 5748 5747 5745 5744 5744 5742 5740 5740 5739 5739 5738 5736 5732 5728 5718 5714 5711 5709 5707 5703 5698 5695 5690 5686 5683
5781 5776 5771 5768 5765 5762 5760 5759 5758 5756 5755 5754 5753 5751 5750 5750 5749 5747 5745 5746 5744 5742 5741 5740 5738 5737 5736 5735 5733 5731 5729 5726 5719 5709 5704 5702 5699 5696 5691 5687 5683 5679 5675
5782 5777 5772 5768 5765 5762 5760 5759 5757 5755 5754 5753 5751 5750 5748 5748 5747 5746 5744 5743 5742 5740 5739 5737 5735 5734 5731 5731 5729 5727 5725 5723 5718 5709 5702 5697 5692 5689 5683 5679 5675 5671 5667
5783 5776 5771 5767 5765 5762 5760 5758 5756 5754 5752 5750 5749 5747 5746 5745 5744 5742 5740 5739 5738 5737 5736 5734 5732 5730 5729 5728 5726 5724 5721 5717 5712 5705 5698 5692 5686 5682 5677 5671 5665 5662 5659
5782 5776 5771 5768 5765 5762 5758 5756 5753 5751 5750 5748 5746 5744 5743 5742 5740 5738 5736 5736 5734 5732 5730 5729 5728 5727 5725 5724 5723 5720 5716 5711 5705 5699 5693 5686 5681 5675 5671 5666 5660 5655 5651
5780 5775 5771 5766 5763 5759 5755 5752 5750 5747 5746 5744 5742 5740 5738 5736 5734 5733 5732 5731 5729 5726 5724 5723 5722 5721 5720 5718 5716 5714 5711 5705 5700 5695 5689 5683 5677 5672 5667 5662 5655 5650 5643
5778 5773 5769 5764 5760 5756 5753 5750 5747 5744 5741 5739 5737 5735 5732 5729 5727 5727 5725 5725 5723 5721 5719 5718 5717 5716 5713 5711 5708 5705 5702 5699 5696 5692 5686 5680 5674 5669 5663 5657 5652 5646 5641
5775 5770 5766 5762 5757 5754 5750 5746 5743 5740 5737 5734 5732 5730 5727 5723 5721 5720 5719 5718 5717 5715 5713 5712 5710 5707 5706 5703 5700 5696 5692 5689 5687 5684 5680 5675 5671 5665 5660 5654 5647 5640 5634
5771 5766 5763 5759 5754 5749 5745 5741 5738 5735 5732 5730 5728 5725 5721 5716 5713 5712 5711 5711 5709 5707 5706 5704 5702 5699 5697 5694 5691 5686 5682 5678 5676 5673 5669 5666 5661 5656 5651 5645 5638 5632 5625
5768 5764 5760 5756 5750 5745 5741 5738 5735 5731 5728 5726 5722 5719 5716 5711 5707 5705 5703 5704 5701 5699 5697 5695 5692 5690 5687 5684 5681 5678 5673 5669 5666 5662 5658 5654 5651 5646 5642 5638 5633 5627 5620
5764 5760 5755 5751 5746 5742 5737 5733 5730 5726 5723 5719 5716 5713 5710 5705 5700 5698 5696 5696 5694 5692 5689 5686 5681 5679 5677 5674 5672 5669 5665 5661 5657 5653 5648 5644 5639 5635 5631 5628 5624 5620 5614
5757 5752 5748 5744 5741 5737 5731 5727 5723 5720 5716 5713 5709 5706 5703 5699 5694 5690 5688 5687 5685 5683 5680 5676 5671 5668 5666 5664 5661 5658 5655 5652 5648 5643 5638 5634 5630 5626 5621 5617 5613 5610 5606
5748 5743 5739 5736 5732 5728 5723 5719 5715 5712 5709 5706 5703 5699 5696 5693 5687 5683 5680 5678 5676 5673 5669 5665 5661 5658 5655 5652 5649 5647 5645 5642 5638 5634 5629 5625 5621 5617 5612 5607 5603 5599 5595
5736 5732 5729 5726 5722 5718 5715 5712 5708 5704 5702 5699 5695 5692 5689 5685 5681 5676 5672 5668 5665 5662 5658 5653 5650 5647 5645 5642 5638 5636 5634 5632 5629 5625 5620 5616 5611 5606 5602 5598 5593 5589 5584
5725 5722 5719 5716 5713 5708 5703 5698 5696 5692 5690 5688 5687 5685 5681 5677 5671 5668 5665 5662 5658 5654 5648 5645 5641 5638 5634 5631 5629 5626 5624 5622 5618 5615 5611 5606 5602 5598 5594 5590 5585 5581 5576
5714 5712 5710 5707 5704 5700 5694 5687 5681 5679 5676 5675 5673 5672 5669 5665 5661 5658 5655 5651 5648 5643 5640 5637 5633 5630 5627 5624 5621 5617 5615 5612 5609 5606 5602 5598 5593 5589 5585 5581 5577 5573 5569
5703 5701 5700 5698 5695 5691 5687 5683 5676 5669 5665 5663 5661 5659 5657 5652 5649 5646 5643 5639 5636 5632 5630 5628 5625 5621 5619 5616 5612 5609 5606 5603 5600 5596 5593 5589 5586 5581 5577 5572 5568 5564 5560
5692 5690 5688 5687 5684 5682 5678 5675 5671 5666 5661 5655 5649 5645 5643 5640 5637 5634 5630 5627 5624 5621 5621 5619 5616 5612 5609 5606 5603 5600 5597 5593 5590 5587 5583 5580 5576 5572 5568 5564 5560 5556 5552
5680 5679 5677 5676 5674 5671 5668 5664 5661 5657 5653 5647 5641 5634 5630 5627 5624 5620 5618 5617 5616 5613 5611 5609 5606 5603 5600 5597 5594 5591 5587 5584 5581 5577 5574 5571 5567 5563 5559 5556 5552 5546 5543
5668 5665 5664 5664 5663 5660 5657 5653 5649 5645 5641 5637 5632 5627 5621 5618 5615 5611 5608 5607 5605 5604 5601 5599 5596 5593 5590 5588 5584 5581 5578 5574 5571 5568 5565 5562 5559 5555 5551 5547 5543 5538 5535
5658 5656 5652 5652 5650 5647 5645 5641 5637 5634 5630 5626 5622 5617 5612 5611 5608 5604 5600 5597 5595 5593 5591 5589 5586 5583 5580 5578 5575 5572 5569 5566 5563 5560 5557 5553 5550 5546 5542 5538 5535 5530 5527
5648 5646 5643 5641 5638 5635 5633 5630 5626 5623 5619 5616 5612 5607 5601 5600 5599 5595 5592 5589 5587 5584 5582 5580 5577 5574 5572 5570 5566 5563 5560 5557 5554 5551 5548 5545 5541 5537 5533 5530 5526 5523 5519
5637 5635 5633 5630 5627 5623 5621 5618 5615 5612 5609 5605 5602 5598 5593 5590 5588 5586 5583 5581 5579 5576 5574 5571 5568 5566 5564 5561 5558 5555 5552 5549 5546 5542 5539 5535 5532 5528 5524 5521 5518 5514 5511
5626 5624 5621 5619 5616 5613 5611 5607 5604 5601 5598 5595 5592 5588 5585 5581 5579 5576 5574 5572 5571 5568 5566 5563 5560 5558 5555 5552 5549 5546 5543 5540 5537 5534 5530 5527 5523 5520 5516 5513 5511 5508 5505
5616 5614 5611 5608 5605 5603 5600 5597 5594 5591 5588 5586 5583 5580 5577 5573 5571 5568 5566 5564 5562 5560 5557 5555 5552 5550 5547 5544 5541 5537 5533 5530 5527 5524 5520 5517 5514 5510 5508 5505 5503 5501 5499
5606 5604 5601 5599 5596 5593 5590 5587 5584 5582 5580 5578 5575 5572 5569 5567 5564 5562 5559 5557 5555 5553 5550 5547 5544 5542 5538 5535 5532 5528 5524 5520 5517 5514 5510 5507 5505 5502 5499 5497 5496 5494 5492